Weather History for South Bend, IN

Change the Weather History Date:

Tuesday, August 19, 2014

  Actual Average Record
Temperature  
Mean Temperature 78 °F 71 °F  
Max Temperature 87 °F 81 °F 98 °F (1983)
Min Temperature 68 °F 62 °F 44 °F (1933)
Degree Days  
Heating Degree Days 0 0  
Month to date heating degree days 10 0  
Since 1 June heating degree days 45 49  
Since 1 July heating degree days 28 5  
Cooling Degree Days 13 7  
Month to date cooling degree days 122 135  
Year to date cooling degree days 563 609  
Since 1 June cooling degree days 478 553  
Growing Degree Days 28 (Base 50)    
Moisture  
Dew Point 67 °F    
Average Humidity 73    
Maximum Humidity 90    
Minimum Humidity 55    
Precipitation  
Precipitation 0.31 in 0.12 in 1.18 in (1900)
Month to date precipitation 1.23 2.35  
Year to date precipitation 27.24 23.86  
Sea Level Pressure  
Sea Level Pressure 29.77 in    
Wind  
Wind Speed 9 mph (SW)    
Max Wind Speed 31 mph    
Max Gust Speed 45 mph    
Visibility 8 miles    
Events Rain , Thunderstorm    
T = Trace of Precipitation, MM = Missing Value Source: NWS Daily Summary

Daily Weather History Graph

Daily Weather History Graph

Search for Another Location

Airport:

Trip Planner

Search our weather history database for the weather conditions in past years. The results will help you decide how hot, cold, wet, or windy it might be!

Date:

Astronomy

Aug. 19, 2014 Rise Set
Actual Time 6:57 AM EDT 8:39 PM EDT
Civil Twilight 6:28 AM EDT 9:08 PM EDT
Nautical Twilight 5:52 AM EDT 9:44 PM EDT
Astronomical Twilight 5:13 AM EDT 10:22 PM EDT
Moon 1:48 AM EDT (8/19) 4:36 PM EDT (8/19)
Length of Visible Light 14h 40m
Length of Day
13h 41m
Waning Crescent, 29% of the Moon is Illuminated
Aug 19
Waning Crescent
Aug 25
New
Sep 2
First Quarter
Sep 8
Full
Sep 15
Last Quarter

Hourly Weather History & Observations

Time (EDT) Temp. Heat Index Dew Point Humidity Pressure Visibility Wind Dir Wind Speed Gust Speed Precip Events Conditions
12:54 AM 69.1 °F - 64.9 °F 87% 29.82 in 6.0 mi Calm Calm - N/A   Clear
1:54 AM 70.0 °F - 66.0 °F 87% 29.81 in 6.0 mi Calm Calm - N/A   Clear
2:54 AM 68.0 °F - 64.9 °F 90% 29.79 in 6.0 mi South 4.6 mph - N/A   Clear
3:54 AM 68.0 °F - 64.9 °F 90% 29.78 in 5.0 mi WSW 4.6 mph - N/A   Clear
4:54 AM 68.0 °F - 64.0 °F 87% 29.78 in 4.0 mi SSW 3.5 mph - N/A   Clear
5:54 AM 69.1 °F - 64.9 °F 87% 29.79 in 4.0 mi SW 5.8 mph - N/A   Scattered Clouds
6:54 AM 68.0 °F - 64.9 °F 90% 29.78 in 3.0 mi SSW 6.9 mph - N/A   Clear
7:54 AM 70.0 °F - 66.0 °F 87% 29.79 in 4.0 mi South 5.8 mph - N/A   Clear
8:54 AM 70.0 °F - 66.9 °F 90% 29.79 in 4.0 mi SSW 5.8 mph - 0.00 in Rain Light Rain
9:54 AM 73.0 °F - 68.0 °F 84% 29.77 in 5.0 mi South 8.1 mph - 0.00 in   Haze
10:54 AM 79.0 °F - 69.1 °F 72% 29.77 in 10.0 mi SW 12.7 mph - N/A   Partly Cloudy
11:17 AM 80.1 °F 82.9 °F 69.1 °F 69% 29.79 in 10.0 mi SSW 13.8 mph - N/A   Mostly Cloudy
11:52 AM 80.6 °F 83.2 °F 68.0 °F 65% 29.78 in 10.0 mi SW 18.4 mph 25.3 mph N/A   Scattered Clouds
11:54 AM 81.0 °F 83.8 °F 68.0 °F 65% 29.76 in 10.0 mi SW 19.6 mph 26.5 mph N/A   Scattered Clouds
12:50 PM 82.4 °F 85.4 °F 68.0 °F 62% 29.77 in 10.0 mi SSW 18.4 mph - N/A   Mostly Cloudy
12:54 PM 82.9 °F 85.8 °F 68.0 °F 60% 29.75 in 10.0 mi SSW 15.0 mph 23.0 mph N/A   Mostly Cloudy
1:04 PM 82.9 °F 85.8 °F 68.0 °F 60% 29.77 in 10.0 mi SSW 19.6 mph 25.3 mph N/A   Mostly Cloudy
1:54 PM 84.9 °F 87.6 °F 66.9 °F 55% 29.73 in 10.0 mi SW 21.9 mph 28.8 mph N/A   Mostly Cloudy
2:01 PM 84.0 °F 86.5 °F 66.9 °F 56% 29.74 in 10.0 mi SW 20.7 mph 29.9 mph N/A   Mostly Cloudy
2:54 PM 86.0 °F 89.4 °F 68.0 °F 55% 29.73 in 10.0 mi WSW 19.6 mph 28.8 mph N/A Thunderstorm Mostly Cloudy
3:03 PM 82.0 °F 85.5 °F 69.1 °F 65% 29.76 in 1.8 mi SW 26.5 mph 35.7 mph 0.00 in Rain , Thunderstorm Heavy Thunderstorms and Rain
3:05 PM 79.0 °F - 70.0 °F 74% 29.78 in 0.8 mi SW 31.1 mph 44.9 mph 0.02 in Rain , Thunderstorm Heavy Thunderstorms and Rain
3:15 PM 73.0 °F - 66.9 °F 81% 29.75 in 5.0 mi SSW 19.6 mph 35.7 mph 0.31 in Rain , Thunderstorm Light Thunderstorms and Rain
3:43 PM 73.9 °F - 68.0 °F 82% 29.73 in 10.0 mi West 10.4 mph - 0.31 in   Scattered Clouds
3:54 PM 75.9 °F - 69.1 °F 79% 29.73 in 10.0 mi SW 9.2 mph - 0.31 in   Partly Cloudy
4:54 PM 81.0 °F 82.5 °F 64.0 °F 56% 29.75 in 10.0 mi WSW 11.5 mph - 0.00 in   Clear
5:54 PM 78.1 °F - 66.0 °F 66% 29.75 in 10.0 mi SSW 10.4 mph - N/A   Clear
6:54 PM 77.0 °F - 64.9 °F 66% 29.74 in 10.0 mi SSW 10.4 mph - N/A   Scattered Clouds
7:54 PM 77.0 °F - 63.0 °F 62% 29.74 in 10.0 mi SSW 6.9 mph - N/A   Partly Cloudy
8:54 PM 73.9 °F - 64.9 °F 73% 29.75 in 10.0 mi SSW 4.6 mph - N/A   Partly Cloudy
9:54 PM 73.0 °F - 66.0 °F 79% 29.75 in 10.0 mi South 5.8 mph - N/A   Clear
10:42 PM 73.0 °F - 66.9 °F 81% 29.78 in 10.0 mi SSW 10.4 mph - N/A Thunderstorm Scattered Clouds
10:54 PM 73.0 °F - 66.9 °F 81% 29.77 in 10.0 mi SSW 9.2 mph - N/A Thunderstorm Scattered Clouds
11:09 PM 72.0 °F - 66.9 °F 84% 29.78 in 10.0 mi SSW 8.1 mph - N/A   Scattered Clouds
11:54 PM 71.1 °F - 64.9 °F 81% 29.78 in 10.0 mi SW 3.5 mph - N/A   Scattered Clouds